(260555) = 2005 EV199 = 2008 AR111

Discovered at Kitt Peak on 2005-03-12 by Spacewatch.

Orbit

Orbit type: Main Belt

Note: WebGL enabled browser required.

epoch2024-03-31.0
epoch JD2460400.5
perihelion date2023-11-04.29008
perihelion JD2460252.79009
argument of perihelion (°)87.30680
ascending node (°)349.45996
inclination (°)2.67018
eccentricity0.1040634
perihelion distance (AU)1.9618058
Tisserand w.r.t. Jupiter3.7
ΔV w.r.t. Earth (km/sec)8.6
semimajor axis (AU)2.1896704
mean anomaly (°)44.93095
mean daily motion (°/day)0.30418370
aphelion distance (AU)2.418
period (years)3.24
P-vector [x]0.22871712
P-vector [y]0.87363069
P-vector [z]0.42948563
Q-vector [x]-0.97345563
Q-vector [y]0.20910912
Q-vector [z]0.09304578
absolute magnitude17.64
phase slope0.15
uncertainty0
referenceE2024-GD4
observations used306
oppositions15
arc length (days)8567
first opposition used2000
last opposition used2024
residual rms (arc-secs)0.76
perturbers coarse indicatorM-v
perturbers precise indicator003Ek
first observation date used2000-10-25.0
last observation date used2024-04-09.0
computer nameMPCLINUX
JD of orbit computation2456639.537587
perihelion JD uncertainty (days)8.8725E-05
argument of perihelion uncertainty (°)9.0910E-05
ascending node uncertainty (°)8.5137E-05
inclination uncertainty (°)4.6463E-06
eccentricity uncertainty 4.4730E-08
perihelion distance uncertainty (AU)1.0566E-07
Minimum Orbit Intersection Distances (in AU)
for orbit epoch: 2460400.5, reference: E2024-GD4
Mercury1.65433
Venus1.24252
Earth0.97957
Mars0.37722
Jupiter2.76759
Saturn7.07556
Uranus16.2385
Neptune27.7651

Observations

305 total observations over interval: 2000 10 25.30590 – 2024 01 19.115472
These data are available for download (format description).

Date (UT) J2000 RA J2000 Dec Magn Location Ref
2000 10 25.30590 01 47 36.38 +14 49 54.9 19.4   704 – Lincoln Laboratory ETS, New Mexico MPS 358869
2000 10 25.33286 01 47 34.56 +14 49 48.2 19.3   704 – Lincoln Laboratory ETS, New Mexico MPS 358869
2000 10 25.34635 01 47 33.62 +14 49 43.7 19.2   704 – Lincoln Laboratory ETS, New Mexico MPS 358869
2002 03 13.42870 14 34 31.70 -17 27 42.5 22.0 V 291 – LPL/Spacewatch II MPS 240729
2002 03 13.43862 14 34 31.54 -17 27 43.2 22.0 V 291 – LPL/Spacewatch II MPS 240729
2002 03 13.44820 14 34 31.41 -17 27 43.6 21.9 V 291 – LPL/Spacewatch II MPS 240729
2003 09 21.21065 22 59 30.90 -06 24 38.4 20.5 V 691 – Steward Observatory, Kitt Peak-Spacewatch MPS 240729
2003 09 21.24010 22 59 29.13 -06 24 46.0 20.4 V 691 – Steward Observatory, Kitt Peak-Spacewatch MPS 240729
2003 09 21.26618 22 59 27.56 -06 24 52.6 20.6 V 691 – Steward Observatory, Kitt Peak-Spacewatch MPS 240729
2005 03 12.28464 12 06 49.78 -01 27 14.3 20.0 V 691 – Steward Observatory, Kitt Peak-Spacewatch MPS 129322
2005 03 12.31054 12 06 48.14 -01 27 06.8 20.1 V 691 – Steward Observatory, Kitt Peak-Spacewatch MPS 129322
2005 03 12.34532 12 06 46.00 -01 26 57.1 19.7 V 691 – Steward Observatory, Kitt Peak-Spacewatch MPS 129322
2005 03 13.29398 12 05 47.94 -01 22 15.4 19.1   703 – Catalina Sky Survey MPS 129322
2005 03 13.30348 12 05 47.31 -01 22 11.7 20.0   703 – Catalina Sky Survey MPS 129322
2005 03 13.31295 12 05 46.79 -01 22 10.9 20.0   703 – Catalina Sky Survey MPS 129322
2005 03 13.32245 12 05 46.11 -01 22 07.8 19.8   703 – Catalina Sky Survey MPS 129322
2005 03 16.38976 12 02 35.47 -01 06 34.8 20.1 V 691 – Steward Observatory, Kitt Peak-Spacewatch MPS 129322
2005 03 16.41611 12 02 33.77 -01 06 26.9 20.1 V 691 – Steward Observatory, Kitt Peak-Spacewatch MPS 129322
2005 03 16.44126 12 02 32.13 -01 06 18.8 20.4 V 691 – Steward Observatory, Kitt Peak-Spacewatch MPS 129322
2005 04 06.25338 11 42 05.91 +00 36 04.7 19.8 R G96 – Mt. Lemmon Survey MPS 175133
2005 04 06.25937 11 42 05.59 +00 36 06.6 19.0 R G96 – Mt. Lemmon Survey MPS 175133
2005 04 06.26536 11 42 05.32 +00 36 08.0 19.3 R G96 – Mt. Lemmon Survey MPS 175133
2005 04 06.27138 11 42 04.96 +00 36 09.2 19.7 R G96 – Mt. Lemmon Survey MPS 175133
2005 05 12.16609 11 30 40.79 +01 22 23.5 21.1 R G96 – Mt. Lemmon Survey MPS 240729
2005 05 12.17443 11 30 40.89 +01 22 23.0 20.9 R G96 – Mt. Lemmon Survey MPS 240729
2005 05 12.18256 11 30 40.97 +01 22 22.3 21.4 R G96 – Mt. Lemmon Survey MPS 240729
2005 05 12.19076 11 30 41.09 +01 22 21.3 20.7 R G96 – Mt. Lemmon Survey MPS 240729
2008 01 10.42487 09 56 39.40 +15 46 29.9 20.5 V G96 – Mt. Lemmon Survey MPS 240729
2008 01 10.43034 09 56 39.26 +15 46 30.9 20.2 V G96 – Mt. Lemmon Survey MPS 240729
2008 01 10.43587 09 56 39.04 +15 46 31.5 20.2 V G96 – Mt. Lemmon Survey MPS 240729
2008 01 10.44138 09 56 38.90 +15 46 32.3 20.4 V G96 – Mt. Lemmon Survey MPS 240729
2008 01 15.47095 09 53 47.15 +15 59 25.6 20.3 V 691 – Steward Observatory, Kitt Peak-Spacewatch MPS 235568
2008 01 15.48932 09 53 46.36 +15 59 28.4 20.0 V 691 – Steward Observatory, Kitt Peak-Spacewatch MPS 235568
2008 01 15.50742 09 53 45.61 +15 59 32.1 20.0 V 691 – Steward Observatory, Kitt Peak-Spacewatch MPS 235568
2008 01 19.44684 09 50 54.76 +16 11 50.4 20.0 V 691 – Steward Observatory, Kitt Peak-Spacewatch MPS 235568
2008 01 19.46496 09 50 53.87 +16 11 53.6 20.1 V 691 – Steward Observatory, Kitt Peak-Spacewatch MPS 235568
2008 01 19.48333 09 50 52.96 +16 11 57.4 20.0 V 691 – Steward Observatory, Kitt Peak-Spacewatch MPS 235568
2008 02 09.18085 09 29 52.62 +17 30 36.3 19.5 V 691 – Steward Observatory, Kitt Peak-Spacewatch MPS 240729
2008 02 09.19850 09 29 51.39 +17 30 40.2 19.5 V 691 – Steward Observatory, Kitt Peak-Spacewatch MPS 240729
2008 02 09.21614 09 29 50.14 +17 30 44.4 19.5 V 691 – Steward Observatory, Kitt Peak-Spacewatch MPS 240729
2008 02 09.63448 09 29 21.62 +17 32 16.1 18.2 R D29 – Purple Mountain Observatory, XuYi Station MPS 240729
2008 02 09.64722 09 29 20.76 +17 32 19.3 18.3 R D29 – Purple Mountain Observatory, XuYi Station MPS 240729
2008 02 09.66125 09 29 19.65 +17 32 22.3 19.3 R D29 – Purple Mountain Observatory, XuYi Station MPS 240729
2008 02 09.67519 09 29 18.64 +17 32 25.3 18.7 R D29 – Purple Mountain Observatory, XuYi Station MPS 240729
2008 02 12.23653 09 26 25.55 +17 41 28.2 19.8   704 – Lincoln Laboratory ETS, New Mexico MPS 240845
2008 02 12.24868 09 26 24.74 +17 41 30.9 20.1   704 – Lincoln Laboratory ETS, New Mexico MPS 240845
2008 02 12.26092 09 26 23.92 +17 41 33.1 19.4   704 – Lincoln Laboratory ETS, New Mexico MPS 240845
2008 02 12.28573 09 26 22.22 +17 41 38.7 19.8   704 – Lincoln Laboratory ETS, New Mexico MPS 240846
2008 02 24.28834 09 13 54.58 +18 14 23.1   691 – Steward Observatory, Kitt Peak-Spacewatch MPS 239603
2008 02 24.30921 09 13 53.37 +18 14 25.3   691 – Steward Observatory, Kitt Peak-Spacewatch MPS 239603
2008 02 24.33008 09 13 52.18 +18 14 28.0   691 – Steward Observatory, Kitt Peak-Spacewatch MPS 239603
2008 02 28.14797 09 10 33.89 +18 20 50.4 19.9 V 691 – Steward Observatory, Kitt Peak-Spacewatch MPS 239603
2008 02 28.17148 09 10 32.69 +18 20 52.6 20.1 V 691 – Steward Observatory, Kitt Peak-Spacewatch MPS 239603
2008 02 28.19524 09 10 31.48 +18 20 54.7 20.0 V 691 – Steward Observatory, Kitt Peak-Spacewatch MPS 239603
2008 03 01.16164 09 08 59.14 +18 23 21.2 20.2 V 691 – Steward Observatory, Kitt Peak-Spacewatch MPS 240729
2008 03 01.18030 09 08 58.26 +18 23 22.6 20.2 V 691 – Steward Observatory, Kitt Peak-Spacewatch MPS 240729
2008 03 01.19873 09 08 57.38 +18 23 23.8 20.1 V 691 – Steward Observatory, Kitt Peak-Spacewatch MPS 240729
2008 03 07.17717 09 05 02.74 +18 27 14.6   691 – Steward Observatory, Kitt Peak-Spacewatch MPS 242106
2008 03 07.19326 09 05 02.15 +18 27 14.6   691 – Steward Observatory, Kitt Peak-Spacewatch MPS 242106
2008 03 07.20936 09 05 01.56 +18 27 14.7   691 – Steward Observatory, Kitt Peak-Spacewatch MPS 242106
2008 03 29.17881 09 01 36.84 +17 57 21.0 20.9 V G96 – Mt. Lemmon Survey MPS 244691
2008 03 29.18454 09 01 36.91 +17 57 20.1 20.9 V G96 – Mt. Lemmon Survey MPS 244691
2008 03 29.19028 09 01 36.98 +17 57 19.1 20.9 V G96 – Mt. Lemmon Survey MPS 244691
2008 03 29.19598 09 01 37.05 +17 57 18.1 20.6 V G96 – Mt. Lemmon Survey MPS 244691
2008 04 04.19080 09 03 33.58 +17 38 33.4 21.4 V G96 – Mt. Lemmon Survey MPS 244691
2008 04 04.19634 09 03 33.73 +17 38 32.5 21.2 V G96 – Mt. Lemmon Survey MPS 244691
2008 04 04.20190 09 03 33.84 +17 38 31.2 21.3 V G96 – Mt. Lemmon Survey MPS 244691
2008 04 04.20745 09 03 33.98 +17 38 30.4 21.0 V G96 – Mt. Lemmon Survey MPS 244691
2008 04 11.16934 09 07 10.70 +17 11 42.2 21.5 V G96 – Mt. Lemmon Survey MPS 245742
2008 04 11.17617 09 07 10.88 +17 11 40.1 21.7 V G96 – Mt. Lemmon Survey MPS 245742
2008 04 11.18293 09 07 11.13 +17 11 38.8 21.8 V G96 – Mt. Lemmon Survey MPS 245742
2008 04 11.18971 09 07 11.38 +17 11 36.9 21.0 V G96 – Mt. Lemmon Survey MPS 245742
2008 04 30.16146 09 23 03.87 +15 34 01.5 21.8 V G96 – Mt. Lemmon Survey MPS 248125
2008 04 30.16995 09 23 04.38 +15 33 58.6 21.8 V G96 – Mt. Lemmon Survey MPS 248125
2008 04 30.17839 09 23 04.84 +15 33 55.1 21.6 V G96 – Mt. Lemmon Survey MPS 248125
2008 04 30.18677 09 23 05.38 +15 33 52.0 21.9 V G96 – Mt. Lemmon Survey MPS 248125
2009 06 28.418131 18 41 26.011 -27 30 24.71 20.20 r F51 – Pan-STARRS 1, Haleakala MPS 291731
2009 06 28.427642 18 41 25.300 -27 30 25.35 20.27 r F51 – Pan-STARRS 1, Haleakala MPS 291731
2010 12 04.22530 06 20 18.65 +28 30 22.9   691 – Steward Observatory, Kitt Peak-Spacewatch MPS 358869
2010 12 04.24305 06 20 17.66 +28 30 24.5   691 – Steward Observatory, Kitt Peak-Spacewatch MPS 358869
2010 12 04.26079 06 20 16.64 +28 30 26.4   691 – Steward Observatory, Kitt Peak-Spacewatch MPS 358869
2010 12 08.22543 06 16 26.46 +28 35 48.2 19.9 V 691 – Steward Observatory, Kitt Peak-Spacewatch MPS 358869
2010 12 08.24323 06 16 25.30 +28 35 48.8 19.5 V 691 – Steward Observatory, Kitt Peak-Spacewatch MPS 358869
2010 12 08.26103 06 16 24.16 +28 35 51.3 19.6 V 691 – Steward Observatory, Kitt Peak-Spacewatch MPS 358869
2012 06 12.35245 16 10 54.382 -25 38 50.29 20.9 w F51 – Pan-STARRS 1, Haleakala MPS 427210
